COSMOS 2535 DEB, 44641

Orbit data source: Space-Track

COSMOS 2535 DEB, 44641 is space debris in SSO originally from a launch on Wed, 10 Jul 2019 UTC launched from the Plesetsk Missile And Space Complex (PKMTR). Debris objects in space refer to the collection of defunct objects orbiting the Earth. Examples of debris include non-operational satellites, rocket bodies, and fragments generated from explosions, collisions, or faulty payload assembly.

Loading next visibility...
Identifier
44641, 2019-039M
Orbit
SSO
Country
Flag of CISCIS
Related business
Manufacturer
Unknown
Mission
Spacecraft
Bus & Motor
Unknown
Mass
Unknown
Launch date (UTC)
2019-07-10 (7 years ago)
Launch vehicle
Unknown
Launch site
Plesetsk Missile And Space Complex (PKMTR)
Object type
Payload
Rocket body
Debris
Shape & HBR
Unknown shape, 0.1 m
Radar Cross Section
Small (<0.1 m²)

Expand to show TLE details & history
Last TLE update: 18 hours ago

TLE from 18 hours ago
0 COSMOS 2535 DEB
1 44641U 19039M   26122.16200176  .00025413  00000-0  85463-3 0  9991
2 44641  97.5540 195.2015 0016644 130.8178 229.4509 15.30661064360083
Epoch: 2026-05-02T03:53Z
TLE epoch observation values (Epoch: 2026-05-02T03:53:16.952Z)
Latitude
Longitude
-83.203°
Altitude
484.366 km
Speed
7.619 km/s
True Right ascension
13h 00m 48s
True Declination
0° 00' 00"
Sunlit
Object was in full shadow at epoch
Visualization orbit readout
Latitude
Unknown
Longitude
Unknown
Altitude
Unknown
Speed
Unknown
Apparent Right ascension
Unknown
Apparent Declination
Unknown
Sunlit
N/A
Visualization observer readout
Local Sidereal Time
05:59:49
Azimuth
Unknown
Elevation
Unknown
Doppler factor
Unknown
Orbital elements
Apogee altitude
482.196 km
Perigee altitude
459.397 km
Semi-major axis
6,848.934 km
Eccentricity
0.00166
Inclination
97.554°
RAAN
195.2015°
Arg. of periapsis
130.8178°
True anomaly
229.30617°
Mean anomaly
229.4509°
Eccentric anomaly
229.37852°
Mean motion
3.82921 °/min
Orbital period
94.01 mins
BSTAR
0.00085463
Loading maneuver chart data...
Computing Atmospheric mass density...
Loading historical data...
Loading historical data...
Loading historical data...
Loading historical data...
Loading historical data...
Loading historical data...
Loading historical data...

Documentation

Showing up to 5 results
|